[[{"header":{"parameterUnit":"m.s-1","parameterCategory":1,"la1":30.2991,"la2":30.254,"lo1":-89.0895,"lo2":-89.0444,"dy":0.0017,"dx":0.0017,"nx":28,"ny":28,"refTime":"2024-05-25T09:00:00:Z","depth":0,"parameterNumber":2,"parameterNumberName":"U-component_of_WINDS"},"data":[0,0,0,0,0,0,0,0,0,0,0,0,0,0,0,0,0,0,0,0,0,0,0,0,0,0,0,0,0,0,0,0,0,0,0,0,0,0,0,0,0,0,0,0,0,0,0,0,0,0,0,0,0,0,0,0,0,0,-0.5012,-0.5013,0,-0.511,-0.5111,-0.5112,-0.5175,-0.5176,-0.5176,-0.5176,-0.5274,-0.5276,-0.5279,0,0,0,0,0,0,0,0,0,0,0,0,0,-0.4878,-0.488,-0.5012,-0.5013,-0.5015,-0.511,-0.5111,-0.5113,-0.5175,-0.5176,-0.5176,-0.5177,-0.5273,-0.5276,-0.5279,0,0,0,0,0,0,0,0,0,0,0,0,0,-0.4952,-0.488,-0.5012,-0.5057,-0.5062,-0.511,-0.5111,-0.5113,-0.5175,-0.5176,-0.5176,-0.5177,-0.5273,-0.5276,-0.5279,-0.5288,0,0,-0.5289,-0.5291,0,0,0,0,0,0,0,0,-0.4947,-0.4957,-0.5049,-0.5054,-0.506,-0.5131,-0.51,-0.5172,-0.5175,-0.5132,-0.5176,-0.5177,-0.5226,-0.5233,-0.525,-0.5293,-0.5297,-0.529,-0.5292,-0.5293,-0.5294,0,0,0,0,0,0,0,-0.4942,-0.4953,-0.5051,-0.5051,-0.5057,-0.5072,-0.5083,-0.5114,-0.5174,-0.5136,-0.5141,-0.5152,-0.5229,-0.5247,-0.5253,-0.5298,-0.529,-0.5293,-0.5295,-0.5296,-0.5354,-0.5354,0,0,0,0,0,0,-0.493,-0.4948,-0.5048,-0.5054,-0.5004,-0.5074,-0.5087,-0.5108,-0.5174,-0.5185,-0.5151,-0.5154,-0.5241,-0.5249,-0.5257,-0.5272,-0.5293,-0.5296,-0.5298,-0.5354,-0.5354,-0.5353,0,0,0,0,0,0,-0.4927,-0.4938,-0.5044,-0.5002,-0.5017,-0.5076,-0.5099,-0.5109,-0.5127,-0.5186,-0.5197,-0.5158,-0.5242,-0.5252,-0.528,-0.5277,-0.5298,-0.5301,-0.5355,-0.5354,-0.5354,-0.5303,0,0,0,0,0,0,-0.4923,-0.4937,-0.4941,-0.5002,-0.5019,-0.5066,-0.5099,-0.5111,-0.5133,-0.5138,-0.5195,-0.5205,-0.5243,-0.5275,-0.5284,-0.5282,-0.5303,-0.5356,-0.5355,-0.5354,-0.5305,-0.5301,-0.5297,0,0,0,0,0,-0.4918,-0.4923,-0.4941,-0.4953,-0.5026,-0.5066,-0.5075,-0.5119,-0.5133,-0.5137,-0.5175,-0.5204,-0.5275,-0.5277,-0.5288,-0.5286,-0.5356,-0.5355,-0.5354,-0.5307,-0.5302,-0.5297,0,0,0,0,0,0,-0.4859,-0.4931,-0.4953,-0.4977,-0.5015,-0.5076,-0.5084,-0.5112,-0.5146,-0.5149,-0.5201,-0.5213,-0.5236,-0.5264,-0.5265,-0.5299,-0.5319,-0.532,-0.528,-0.5275,-0.5271,-0.5264,-0.5306,0,0,0,0,0,-0.4849,-0.4876,-0.4938,-0.4953,-0.4971,-0.5024,-0.5043,-0.5074,-0.5114,-0.513,-0.517,-0.5208,-0.5239,-0.5259,-0.5291,-0.531,-0.5323,-0.5314,-0.531,-0.5306,-0.5306,-0.5319,-0.5316,-0.535,-0.535,-0.535,0,0,-0.4828,-0.4871,-0.4885,-0.4943,-0.4975,-0.5002,-0.5037,-0.5063,-0.5084,-0.5134,-0.5164,-0.5194,-0.524,-0.5264,-0.5276,-0.5288,-0.53,-0.5305,-0.5301,-0.5304,-0.5317,-0.5314,-0.5311,-0.5349,-0.5349,-0.5349,0,0,-0.4805,-0.484,-0.4857,-0.4889,-0.4939,-0.4974,-0.4978,-0.5036,-0.5058,-0.5089,-0.5128,-0.5152,-0.5204,-0.5236,-0.5259,-0.5247,-0.5275,-0.5256,-0.5234,-0.5245,-0.5243,-0.5241,-0.5237,-0.5235,-0.5256,-0.5256,-0.5256,0,-0.4773,-0.4815,-0.4862,-0.4887,-0.4911,-0.4959,-0.4977,-0.5006,-0.5063,-0.5078,-0.509,-0.5158,-0.5192,-0.5224,-0.5222,-0.5238,-0.5244,-0.525,-0.5239,-0.5238,-0.5236,-0.5234,-0.5232,-0.5253,-0.5254,-0.5254,-0.5254,0,-0.4773,-0.4802,-0.481,-0.4865,-0.489,-0.4911,-0.4961,-0.4981,-0.5009,-0.5043,-0.5073,-0.5116,-0.5158,-0.5168,-0.5195,-0.5204,-0.521,-0.523,-0.5251,-0.523,-0.5228,-0.5227,-0.525,-0.5251,-0.5251,-0.5252,0,0,-0.4715,-0.4797,-0.4799,-0.4825,-0.4883,-0.4906,-0.4929,-0.4971,-0.4987,-0.5025,-0.5045,-0.5089,-0.5109,-0.5134,-0.5166,-0.5176,-0.5165,-0.5195,-0.5197,-0.5188,-0.5178,-0.5162,-0.516,-0.5183,-0.5183,-0.5183,-0.5174,0,-0.4701,-0.4746,-0.4789,-0.4819,-0.4846,-0.4892,-0.4912,-0.495,-0.4982,-0.5009,-0.5044,-0.5075,-0.5098,-0.5114,-0.5126,-0.5163,-0.5163,-0.5165,-0.5203,-0.5204,-0.5191,-0.516,-0.5144,-0.5133,-0.5174,-0.5174,-0.5174,0,-0.469,-0.4727,-0.4759,-0.4816,-0.4829,-0.4846,-0.4889,-0.4914,-0.4958,-0.498,-0.5009,-0.5043,-0.5069,-0.5087,-0.5124,-0.5124,-0.5142,-0.5162,-0.5163,-0.5169,-0.5188,-0.5165,-0.513,-0.5129,-0.5173,-0.5173,-0.5173,0,-0.4646,-0.4703,-0.473,-0.4751,-0.4817,-0.4828,-0.4856,-0.4901,-0.4923,-0.496,-0.4975,-0.5013,-0.5034,-0.5063,-0.5106,-0.5115,-0.5138,-0.5159,-0.5158,-0.5156,-0.5161,-0.516,-0.5129,-0.5171,-0.5171,-0.5171,-0.5171,0,-0.4626,-0.4644,-0.4711,-0.4728,-0.4749,-0.4799,-0.4818,-0.485,-0.4889,-0.4913,-0.4954,-0.4975,-0.503,-0.5057,-0.509,-0.5116,-0.5125,-0.5144,-0.5152,-0.514,-0.5138,-0.5153,-0.5155,-0.5171,-0.5171,-0.5171,-0.5171,0,-0.458,-0.4626,-0.4658,-0.4719,-0.4734,-0.4747,-0.4799,-0.4817,-0.4851,-0.488,-0.489,-0.4943,-0.4978,-0.5023,-0.5071,-0.5093,-0.5115,-0.5128,-0.5101,-0.5106,-0.5102,-0.5102,-0.508,-0.508,-0.5121,-0.5121,-0.512,0,-0.4564,-0.4579,-0.4642,-0.4661,-0.4688,-0.4718,-0.4741,-0.479,-0.4813,-0.4864,-0.4875,-0.4913,-0.4945,-0.4998,-0.5041,-0.5078,-0.5093,-0.5083,-0.5099,-0.5086,-0.5093,-0.5092,-0.5094,-0.5079,-0.5078,-0.5078,-0.5077,0,-0.4532,-0.4554,-0.4587,-0.4628,-0.4655,-0.4689,-0.4725,-0.4738,-0.4794,-0.4817,-0.4853,-0.4879,-0.4928,-0.4965,-0.5008,-0.5036,-0.5066,-0.5072,-0.5073,-0.5062,-0.5045,-0.5055,-0.5091,-0.5072,-0.5073,-0.5073,-0.5073,-0.5073,-0.4502,-0.4518,-0.4564,-0.4599,-0.4632,-0.4664,-0.4684,-0.4721,-0.4753,-0.4798,-0.4824,-0.4859,-0.4902,-0.4963,-0.499,-0.5018,-0.5029,-0.5032,-0.5032,-0.5032,-0.5029,-0.504,-0.5026,-0.5026,-0.5026,-0.5026,-0.5026,0,-0.4472,-0.4505,-0.4537,-0.4586,-0.4614,-0.464,-0.4681,-0.4702,-0.4733,-0.4771,-0.4803,-0.4844,-0.488,-0.4926,-0.4965,-0.4979,-0.4993,-0.4987,-0.4987,-0.4993,-0.5016,-0.5011,-0.4975,-0.4975,-0.4975,-0.4975,-0.4975,-0.4975,-0.4461,-0.4489,-0.4517,-0.4561,-0.4594,-0.4629,-0.465,-0.4681,-0.4712,-0.4756,-0.4787,-0.4817,-0.4858,-0.4901,-0.4935,-0.4947,-0.496,-0.495,-0.4966,-0.4987,-0.4991,-0.4996,-0.4992,-0.4952,-0.4952,-0.4942,-0.4942,-0.4942]},{"header":{"parameterUnit":"m.s-1","parameterCategory":1,"la1":30.2991,"la2":30.254,"lo1":-89.0895,"lo2":-89.0444,"dy":0.0017,"dx":0.0017,"nx":28,"ny":28,"refTime":"2024-05-25T09:00:00:Z","depth":0,"parameterNumber":3,"parameterNumberName":"V-component_of_WINDS"},"data":[0,0,0,0,0,0,0,0,0,0,0,0,0,0,0,0,0,0,0,0,0,0,0,0,0,0,0,0,0,0,0,0,0,0,0,0,0,0,0,0,0,0,0,0,0,0,0,0,0,0,0,0,0,0,0,0,0,0,7.3685,7.3686,0,7.3789,7.3791,7.3792,7.3748,7.3746,7.3743,7.3741,7.3844,7.3849,7.3854,0,0,0,0,0,0,0,0,0,0,0,0,0,7.3446,7.345,7.3685,7.3687,7.3688,7.3789,7.3791,7.3792,7.3749,7.3746,7.3742,7.374,7.3842,7.3848,7.3854,0,0,0,0,0,0,0,0,0,0,0,0,0,7.355,7.3452,7.3685,7.3678,7.3679,7.3789,7.3791,7.3792,7.3749,7.3745,7.3742,7.3738,7.384,7.3848,7.3855,7.3977,0,0,7.3878,7.3882,0,0,0,0,0,0,0,0,7.3544,7.3558,7.3678,7.3679,7.368,7.3752,7.3744,7.3854,7.375,7.3722,7.3741,7.3736,7.3816,7.3825,7.3853,7.3981,7.3986,7.3879,7.3884,7.3887,7.3889,0,0,0,0,0,0,0,7.3537,7.3554,7.3726,7.368,7.3681,7.3669,7.368,7.3764,7.3789,7.3725,7.3722,7.3735,7.3816,7.3846,7.3855,7.3987,7.3879,7.3885,7.389,7.3893,7.422,7.4224,0,0,0,0,0,0,7.353,7.3548,7.3723,7.3729,7.3601,7.3677,7.3688,7.3733,7.3788,7.3793,7.3738,7.3732,7.3835,7.3846,7.3859,7.4004,7.3887,7.3894,7.3898,7.4216,7.4221,7.4225,0,0,0,0,0,0,7.3525,7.3546,7.3719,7.3638,7.3659,7.3685,7.3734,7.3737,7.3766,7.3798,7.3802,7.3764,7.3832,7.3848,7.3948,7.4007,7.3897,7.3904,7.4211,7.4218,7.4223,7.4296,0,0,0,0,0,0,7.3518,7.3544,7.3591,7.3639,7.3664,7.3807,7.3738,7.3741,7.378,7.3774,7.3824,7.3828,7.383,7.3937,7.3955,7.4015,7.391,7.4206,7.4214,7.4221,7.4288,7.4304,7.4317,0,0,0,0,0,7.351,7.3607,7.3594,7.3615,7.3723,7.3811,7.3824,7.3826,7.3785,7.3832,7.3852,7.3827,7.3998,7.3947,7.3968,7.4031,7.4202,7.4212,7.4221,7.4282,7.4301,7.4317,0,0,0,0,0,0,7.3564,7.3613,7.3599,7.3715,7.3759,7.3803,7.3863,7.3846,7.3902,7.3894,7.3892,7.3904,7.4007,7.4029,7.3972,7.4151,7.4094,7.4107,7.4133,7.4151,7.4165,7.4157,7.3916,0,0,0,0,0,7.359,7.3658,7.3697,7.3795,7.3818,7.3837,7.3875,7.3873,7.3918,7.3936,7.3963,7.4007,7.407,7.4112,7.4172,7.4292,7.4301,7.4345,7.436,7.4372,7.4383,7.4447,7.4467,7.4256,7.4256,7.4256,0,0,7.3643,7.3678,7.3721,7.3807,7.3841,7.391,7.3853,7.3929,7.398,7.3947,7.4043,7.4065,7.4113,7.4224,7.4273,7.4245,7.4444,7.4383,7.4393,7.4398,7.4459,7.4479,7.4497,7.4262,7.4261,7.426,0,0,7.3775,7.3809,7.3895,7.393,7.3983,7.3995,7.4016,7.4063,7.4076,7.4173,7.415,7.421,7.432,7.4355,7.4388,7.4535,7.4513,7.4554,7.4629,7.4692,7.4708,7.4723,7.4775,7.4793,7.4566,7.4566,7.4566,0,7.3834,7.3939,7.3941,7.4019,7.4057,7.4032,7.4118,7.4152,7.4221,7.4247,7.4215,7.4353,7.4384,7.4502,7.4538,7.4565,7.4588,7.4548,7.4706,7.4721,7.4734,7.4784,7.4803,7.4571,7.457,7.457,7.4569,0,7.4009,7.4082,7.4144,7.4213,7.4258,7.434,7.4353,7.4399,7.4393,7.4408,7.4506,7.4543,7.461,7.4638,7.4633,7.4756,7.4736,7.4706,7.4647,7.4759,7.4805,7.4824,7.4578,7.4576,7.4575,7.4573,0,0,7.4177,7.4246,7.4269,7.43,7.4356,7.4412,7.4493,7.4559,7.4598,7.4647,7.4713,7.4808,7.4779,7.4816,7.4815,7.487,7.4983,7.4832,7.4833,7.4858,7.512,7.5142,7.5164,7.497,7.4973,7.4976,7.5115,0,7.4313,7.4455,7.4459,7.4588,7.4655,7.4633,7.4703,7.4744,7.4761,7.4819,7.4837,7.4903,7.4862,7.4884,7.4938,7.4958,7.5035,7.4948,7.503,7.5033,7.5018,7.5188,7.5212,7.5341,7.5134,7.5137,7.5139,0,7.449,7.4545,7.4682,7.4729,7.4757,7.482,7.4881,7.4938,7.4985,7.4993,7.5035,7.5025,7.5106,7.5047,7.5158,7.5098,7.5133,7.5148,7.5153,7.5159,7.5092,7.5198,7.5383,7.5402,7.5167,7.5165,7.5163,0,7.4598,7.4707,7.4802,7.4829,7.4887,7.4931,7.4957,7.5,7.504,7.5094,7.5119,7.5182,7.5216,7.5264,7.5271,7.5227,7.5382,7.5323,7.539,7.539,7.5423,7.542,7.5614,7.5447,7.5447,7.5446,7.5446,0,7.4748,7.4832,7.4851,7.491,7.5003,7.5007,7.5099,7.5121,7.516,7.5222,7.5206,7.5264,7.5271,7.5331,7.5337,7.5428,7.5444,7.5452,7.5452,7.5452,7.5451,7.5474,7.5464,7.5452,7.545,7.5449,7.5449,0,7.4884,7.49,7.5003,7.5049,7.5063,7.5129,7.5168,7.5224,7.5239,7.5318,7.5336,7.536,7.543,7.5442,7.5524,7.5529,7.5637,7.5629,7.5621,7.562,7.5686,7.5679,7.59,7.5929,7.5744,7.5745,7.5747,0,7.4979,7.5043,7.5096,7.5137,7.5165,7.5231,7.5272,7.5279,7.5322,7.538,7.5429,7.5497,7.5552,7.5665,7.5688,7.5751,7.5743,7.5817,7.5753,7.5751,7.5743,7.5739,7.5745,7.5828,7.583,7.5832,7.5833,0,7.5144,7.5149,7.5209,7.5273,7.5322,7.5372,7.542,7.5454,7.5466,7.5515,7.5587,7.563,7.5714,7.5782,7.5844,7.587,7.5854,7.5854,7.5872,7.5873,7.5865,7.5869,7.5654,7.5848,7.5847,7.5846,7.5845,7.5844,7.5262,7.5317,7.5364,7.5431,7.5468,7.5512,7.5567,7.559,7.565,7.5719,7.5719,7.5798,7.5843,7.5925,7.5955,7.6016,7.5992,7.602,7.6026,7.6033,7.6038,7.5857,7.6027,7.6027,7.6027,7.6026,7.6026,0,7.5426,7.5455,7.5517,7.5584,7.5637,7.5618,7.567,7.5715,7.5784,7.5828,7.5883,7.5965,7.6031,7.6061,7.6126,7.6169,7.6163,7.6185,7.6182,7.6188,7.6056,7.6033,7.6189,7.6189,7.6189,7.6189,7.6189,7.6189,7.5517,7.5611,7.5621,7.5732,7.576,7.5838,7.5869,7.5909,7.5944,7.6037,7.6092,7.6112,7.615,7.6217,7.6277,7.6284,7.6308,7.6334,7.6337,7.6213,7.6197,7.6181,7.6159,7.6339,7.6339,7.6463,7.6464,7.6465]}]]